Location: Morton
(47.1103°N, 0.0222°W)
Time: 11:07:51
(UTC+00:00)

Daily predictions for brighter satellites

Satellite Brightness Start Highest point End
(mag) Time Altitude Azimuth Time Altitude Azimuth Time Altitude Azimuth
USA 186 4.0 20:10:41 10° SSW 20:13:12 23° W 20:15:35 10° NW
Ariane Rocket 3.1 20:13:38 10° SSE 20:18:43 86° WSW 20:23:49 10° NNW
SL-16 R/B 3.2 20:17:33 10° NNW 20:22:44 35° NE 20:27:54 10° ESE
Cosmos 1782 4.3 20:23:56 10° NNE 20:27:05 21° ENE 20:30:03 11° ESE
Cosmos 371 Rocket 3.3 20:22:55 10° NNW 20:27:45 76° ENE 20:32:34 10° SSE
ARIANE 5 R/B 3.9 20:26:54 10° ESE 20:30:37 27° ENE 20:34:21 10° N
Cosmos 1271 Rocket 3.7 20:30:06 10° N 20:33:44 33° ENE 20:36:55 13° SE
USA 276 2.3 20:32:22 10° WNW 20:35:32 69° NNE 20:38:32 11° E
SPOT 1/Viking Rocket 3.7 20:31:35 10° SSE 20:36:40 59° ENE 20:41:49 10° N
BREEZE-M DEB (TANK) 2.2 20:33:58 10° WNW 20:36:44 78° SSW 20:43:14 11° ESE
Cosmos 1076 Rocket 3.5 20:33:53 10° S 20:38:14 86° E 20:42:37 10° N
Cosmos 1697 Rocket 4.2 20:33:58 10° NW 20:38:59 33° WSW 20:43:58 10° SSW
ATLAS 5 CENTAUR R/B 4.4 20:37:40 10° NNW 20:40:41 15° NNE 20:43:58 10° NE
Cosmos 1151 Rocket 4.3 20:37:03 10° NNE 20:40:44 25° ENE 20:43:40 13° ESE
OBJECT-B 3.7 20:39:20 10° SW 20:41:13 15° W 20:43:07 10° NW
ATLAS 2AS CENTAUR R/B 3.6 20:36:17 10° SW 20:44:09 65° NW 20:51:49 10° NE
Cosmos 1833 Rocket 4.5 20:44:02 10° WSW 20:49:12 36° NW 20:54:24 10° NNE
ATLAS 3B R/B 3.0 20:42:51 10° NW 20:49:55 71° SW 20:56:42 12° SSE
Terra 3.1 20:47:56 13° ESE 20:51:14 27° ENE 20:55:12 10° N
SPOT 5 3.5 20:50:49 15° SE 20:53:48 34° ENE 20:57:48 10° N
USA 267 4.4 20:50:55 10° E 20:55:16 19° ESE 20:59:01 12° SSE
Cosmos 2082 Rocket 2.9 20:50:09 10° SW 20:55:41 58° WNW 21:01:19 10° NNE
Cosmos 1092 Rocket 4.1 20:50:02 10° S 20:56:11 65° E 21:02:27 10° NNE
Meteor 2-19 Rocket 4.4 20:50:17 10° S 20:56:18 74° E 21:02:21 10° NNE
Cosmos 1633 3.6 20:54:09 10° SSW 20:57:37 46° WNW 21:01:08 10° N
Cosmos 2278 4.3 20:53:33 10° NW 20:59:02 53° WSW 21:04:32 10° S
BREEZE-M DEB (TANK) 1.9 20:58:47 10° W 21:01:33 68° NNW 21:03:12 12° ENE
ERS-1 Rocket 3.4 21:00:35 17° SE 21:04:12 48° ENE 21:09:01 10° N
Cosmos 332 Rocket 3.9 21:00:10 10° NNW 21:05:05 82° WSW 21:08:59 16° SSE
Cosmos 2360 Rocket 3.2 21:00:59 10° NNW 21:06:07 35° NE 21:10:08 15° ESE
SL-27 R/B 4.4 21:06:23 14° E 21:06:23 14° E 21:08:10 10° ENE
Cosmos 158 Rocket 4.0 21:02:07 10° SSW 21:07:16 87° ESE 21:12:36 10° NNE
Cosmos 2026 Rocket 4.0 21:02:55 10° S 21:09:10 66° E 21:15:23 10° NNE
GP-B 3.1 21:08:28 10° N 21:12:55 68° E 21:16:14 17° S
ISS -3.0 21:11:21 10° WNW 21:14:32 39° SW 21:15:56 25° SSE
Cosmos 2333 Rocket 3.8 21:11:53 10° N 21:16:26 24° NE 21:20:38 11° E
Spot 2 Rocket 3.5 21:14:48 17° SSE 21:18:45 89° ENE 21:23:54 10° NNW
Meteor 1-26 Rocket 4.3 21:13:15 10° NNW 21:19:15 87° W 21:23:55 16° S
SPOT 3 Rocket 4.4 21:14:36 10° S 21:19:37 47° W 21:24:40 10° NNW
Cosmos 1371 Rocket 4.5 21:14:53 10° NNW 21:20:08 51° ENE 21:23:22 22° SE
Cosmos 1812 3.4 21:17:52 10° N 21:21:31 39° ENE 21:23:04 27° SE
Cosmos 2112 Rocket 4.3 21:17:49 15° S 21:22:02 48° ESE 21:27:06 10° NNE
Cosmos 1680 Rocket 3.6 21:17:27 10° S 21:22:30 56° ESE 21:27:39 10° NNE
Cosmos 220 Rocket 4.3 21:19:21 10° NNW 21:23:36 54° ENE 21:25:50 26° SE
CZ-2C R/B 3.9 21:20:23 10° N 21:24:55 73° WNW 21:29:21 10° SSW
Cosmos 1980 Rocket 3.9 21:22:37 10° NW 21:27:13 26° WSW 21:31:48 10° SSW
Okean 3 Rocket 3.7 21:24:58 22° SSE 21:27:43 59° E 21:32:10 10° NNE
USA 245 4.3 21:25:06 14° S 21:29:25 56° WSW 21:33:36 10° NNW
USA 234 4.2 21:24:42 10° E 21:30:49 44° NNE 21:36:57 10° NW
Cosmos 2322 Rocket 2.1 21:32:53 10° NNW 21:38:35 90° E 21:41:46 27° SSE
Resurs 01 Rocket 3.9 21:37:45 10° SW 21:41:03 20° W 21:44:23 10° NW
Cosmos 1408 Rocket 4.0 21:40:12 32° SE 21:41:37 42° E 21:45:44 10° NNE
Meteor 2-14 Rocket 4.4 21:43:59 21° S 21:48:14 72° E 21:54:21 10° NNE
CARTOSAT-1 4.4 21:46:37 19° SSW 21:49:22 44° W 21:53:31 10° NNW
Cosmos 2084 3.3 21:48:52 25° SSW 21:51:02 58° SE 21:55:07 10° NE
Cosmos 1553 Rocket 3.9 21:45:52 10° N 21:51:59 89° E 21:55:36 26° S
CZ-4B DEB 4.2 21:53:29 59° ESE 21:53:52 68° ENE 21:57:01 10° N
Gbstr 26 Del rocket 3.2 21:50:59 10° WNW 21:54:37 46° SW 21:55:27 39° S
Cosmos 2266 Rocket 4.3 21:53:29 29° SE 21:56:14 47° E 22:02:10 10° NNE
Cosmos 1862 3.2 21:57:03 41° S 21:58:22 77° E 22:02:22 10° NNE
Cosmos 2219 Rocket 3.2 21:54:53 10° NNW 22:00:04 37° NE 22:02:58 22° ESE
Cosmos 1624 Rocket 3.9 21:55:27 10° NNW 22:00:41 86° WSW 22:02:57 35° SSE
Cosmos 1782 4.2 21:59:49 10° NNW 22:03:28 33° W 22:05:38 19° SW
Cosmos 2228 Rocket 4.0 22:01:05 10° N 22:05:06 33° ENE 22:06:05 29° E
NOSS 2-1 (E) 2.8 22:05:22 63° ESE 22:05:22 63° ESE 22:08:34 10° NE
Cosmos 1515 Rocket 3.5 22:00:53 10° N 22:05:21 79° E 22:06:43 44° SSE
H-2A R/B 3.5 22:02:04 10° NNE 22:06:15 62° ESE 22:07:15 46° SSE
ARIANE 5 R/B 3.8 22:04:24 20° SSW 22:06:56 36° W 22:11:05 10° NNW
SL-16 R/B 3.0 22:01:36 10° NW 22:06:58 44° WSW 22:09:55 24° SSW
NOSS 3-1 (C) 4.2 22:01:45 10° NW 22:09:04 68° NE 22:14:30 25° SE
Cosmos 2333 4.5 22:04:17 10° NNW 22:09:49 58° ENE 22:12:13 33° ESE
COSMOS 2455 3.4 22:09:10 33° SE 22:10:19 36° ESE 22:15:44 10° NE
Cosmos 2237 4.3 22:05:35 10° NNW 22:11:16 68° WSW 22:13:45 34° S
USA 276 3.7 22:08:46 10° W 22:10:46 25° WSW 22:10:46 25° WSW
Cosmos 1420 Rocket 4.0 22:06:20 10° NNW 22:11:42 80° ENE 22:13:43 39° SSE
COSMOS 2428 3.6 22:09:29 10° NNW 22:14:50 39° NE 22:17:35 25° ESE
Cosmos 1655 Rocket 4.0 22:12:44 30° S 22:16:02 75° E 22:22:26 10° NNE
Meteor 2-6 Rocket 4.3 22:11:00 10° NNW 22:16:21 65° W 22:18:52 31° SSW
Cosmos 1151 Rocket 4.4 22:14:24 10° NNW 22:18:19 33° W 22:20:30 21° SW
S3M 4.1 22:15:52 10° N 22:22:17 82° W 22:25:25 33° S
USA 229 DEB 4.4 22:16:06 10° NW 22:23:13 56° NE 22:28:16 22° ESE
USA 229 4.4 22:16:12 10° NW 22:23:19 55° NE 22:28:23 22° ESE
ATLAS 5 CENTAUR R/B 3.2 22:21:38 10° NNW 22:26:40 40° NE 22:30:39 19° E
Cosmos 1174 3.5 22:23:54 10° NNW 22:26:29 62° NNW 22:26:29 62° NNW
Terra 2.7 22:26:50 28° SSW 22:28:48 41° W 22:33:19 10° NNW
COSMOS 2487 3.9 22:31:49 27° ENE 22:31:49 27° ENE 22:33:46 10° NE
Cosmos 1452 Rocket 3.7 22:25:59 10° NNW 22:31:13 62° ENE 22:32:49 42° SE
SPOT 5 4.3 22:30:02 18° SW 22:31:59 25° W 22:35:38 10° NW
ALOS 2 3.8 22:33:57 27° E 22:34:51 29° ENE 22:38:39 10° N
USA 267 3.2 22:32:36 10° ENE 22:39:07 66° SE 22:45:37 10° SW
Cosmos 2056 Rocket 4.4 22:35:41 10° NW 22:40:41 41° WSW 22:42:28 31° SW
SL-27 R/B 3.5 22:39:50 34° WSW 22:40:51 43° WNW 22:44:19 10° N
Meteor 1-27 Rocket 3.7 22:36:41 10° NNW 22:42:21 84° W 22:44:14 44° S
NOSS 3-1 (A) 4.2 22:36:25 10° NW 22:43:46 69° NE 22:48:48 27° ESE
Cosmos 1805 Rocket 3.5 22:49:13 65° SE 22:49:35 69° E 22:54:01 10° NNE
NOSS 2-1 (C) 4.3 22:48:04 22° W 22:49:39 37° NW 22:52:54 10° NNE
Cosmos 2360 Rocket 2.9 22:44:56 10° NW 22:50:13 43° WSW 22:51:53 34° SSW
IRIDIUM 104 4.3 22:45:42 10° N 22:50:57 85° W 22:52:18 51° S
Meteor 1-20 Rocket 4.3 22:54:51 49° SSE 22:56:05 62° E 23:01:41 10° NNE
Cosmos 1110 Rocket 4.4 22:52:00 10° NNW 22:57:15 55° ENE 22:58:40 42° ESE
IRIDIUM 114 4.4 22:54:51 10° N 23:00:04 72° W 23:01:25 49° SSW
Cosmos 1500 Rocket 4.1 22:59:40 41° WSW 23:00:45 52° WNW 23:05:07 10° N
Cosmos 2333 Rocket 2.2 22:55:38 10° NNW 23:01:17 72° WSW 23:02:38 51° S
Cosmos 1331 Rocket 4.4 22:57:31 10° NNW 23:02:41 55° ENE 23:03:58 43° ESE
Cosmos 972 Rocket 4.0 23:07:27 45° SW 23:09:05 77° WNW 23:14:08 10° NNE
COBE Rocket 3.9 23:09:07 56° SW 23:09:44 62° W 23:14:24 10° NNW
Cosmos 2322 3.8 23:05:49 10° NNW 23:11:30 63° WSW 23:12:44 50° SSW
USA 234 3.2 23:10:02 31° ESE 23:13:28 85° NNE 23:20:03 10° NW
NOSS 0 Rocket 4.2 23:07:32 10° NNW 23:13:45 64° ENE 23:16:01 39° ESE
Cosmos 2297 Rocket 3.4 23:17:11 26° ESE 23:17:11 26° ESE 23:21:45 10° NE
Cosmos 468 4.4 23:16:08 60° SSW 23:17:08 87° ESE 23:22:24 10° NNE
Lacrosse 5 3.6 23:21:58 20° E 23:21:58 20° E 23:24:06 10° ENE
Cosmos 2322 Rocket 4.2 23:18:49 10° WNW 23:21:46 15° W 23:23:35 13° WSW
Cosmos 2237 Rocket 2.9 23:16:26 10° NNW 23:21:56 47° NE 23:24:02 33° ESE
Cosmos 2084 Rocket 4.4 23:19:09 10° NNW 23:23:09 42° NE 23:24:08 36° ENE
Meteor 1-18 Rocket 4.3 23:19:43 10° N 23:25:37 73° ENE 23:26:57 53° SE
Cosmos 1500 3.8 23:26:57 49° NE 23:26:57 49° NE 23:30:04 10° NNE
Cosmos 1470 Rocket 4.4 23:29:03 37° E 23:29:03 37° E 23:32:44 10° NNE
Cosmos 2227 Rocket 3.5 23:28:54 24° ESE 23:28:54 24° ESE 23:33:20 10° NE
Sich 1 3.3 23:28:46 57° WSW 23:29:07 60° WNW 23:33:25 10° N
Cosmos 2285 Rocket 4.2 23:24:52 10° NNW 23:31:01 56° WSW 23:32:33 45° SSW
Meteor 1-25 Rocket 4.2 23:30:16 51° SSW 23:31:41 75° WNW 23:37:16 10° N
Okean 1 3.4 23:28:04 10° N 23:31:46 73° NNW 23:31:46 73° NNW
Cosmos 1633 Rocket 3.0 23:33:06 72° E 23:33:06 72° E 23:37:20 10° NNE
Cosmos 494 Rocket 3.9 23:33:16 63° SW 23:34:06 84° WNW 23:39:17 10° NNE
Cosmos 1666 Rocket 3.4 23:37:07 84° W 23:37:10 84° W 23:41:38 10° N
Cosmos 1048 Rocket 4.3 23:39:38 43° WSW 23:41:03 58° WNW 23:46:08 10° NNE
Cosmos 2219 Rocket 2.8 23:38:52 10° NW 23:44:03 40° WSW 23:44:40 39° WSW
SL-08 R/B 4.4 23:45:16 54° S 23:46:52 89° E 23:53:04 10° N
Meteor 1-19 Rocket 4.3 23:43:02 10° NNW 23:48:37 63° W 23:49:32 55° SW
SL-16 R/B 3.7 23:44:03 10° NNW 23:49:04 31° NE 23:52:42 16° ESE
Cosmos 1269 Rocket 4.3 23:50:05 51° ESE 23:50:20 51° ESE 23:55:27 10° NNE
PSLV R/B 4.4 23:47:37 10° NNE 23:52:11 43° E 23:52:12 43° E
